Wind_Speed
12 9 6 2 4 8 9 9 9 9 9 8 10 14 14 14 12 10 11 11 13 14 14 14 13 15 17 16 19 23 17 14 20 17 11 9 12 13 12 15 14 15 15
17 16 14 11 9 9 11 13 14 13 13 12 11 11 13 15 17 16 15 16 16 16 17 16 17 18 18 18 16 21 21 20 17 16 12 9 11 12 13 14 12 13 13
19 18 18 17 15 13 13 15 17 18 17 17 16 15 15 16 18 19 20 21 21 21 20 19 21 21 20 19 19 20 21 20 21 22 18 12 11 11 11 12 12 13 15
20 20 20 20 19 17 16 17 19 19 20 20 21 21 21 22 23 23 25 25 26 25 24 24 23 23 21 21 20 21 20 22 18 19 24 17 11 12 12 11 12 13 15
21 22 21 22 22 19 17 17 19 21 22 22 22 23 24 24 24 26 29 29 29 29 28 27 25 25 24 23 23 20 21 18 16 18 22 21 18 15 14 13 12 13 14
25 23 25 23 22 22 22 24 24 26 25 26 28 28 29 30 29 29 30 31 30 31 30 29 28 26 27 27 24 25 19 13 18 19 16 20 20 19 17 14 14 15 15
25 28 26 28 31 32 33 28 32 32 34 36 35 37 36 38 37 34 36 36 34 32 34 34 33 32 30 27 29 34 23 26 33 24 19 17 20 22 20 15 15 15 16
20 23 25 28 27 28 31 33 32 42 37 41 41 40 42 43 45 38 39 39 36 33 36 39 38 37 35 31 29 29 30 34 35 31 31 23 20 21 19 16 16 17 17
17 19 19 23 27 28 28 26 30 34 35 31 32 36 40 33 27 37 41 31 30 32 34 38 39 36 37 33 31 30 30 24 26 33 26 21 18 19 19 18 16 18 18
14 16 18 20 22 26 26 25 28 27 27 30 33 33 26 22 22 25 36 44 37 36 37 39 41 39 37 34 30 25 24 15 14 16 25 17 16 17 17 17 17 17 16
9 12 15 17 19 21 24 26 27 28 29 28 26 22 20 19 20 24 26 29 29 33 38 41 42 41 38 34 30 28 22 18 13 21 20 16 15 17 17 17 16 15 15
8 8 9 12 14 15 17 19 20 21 22 22 22 24 26 28 28 28 29 31 33 35 36 37 37 36 31 27 27 23 21 20 17 20 16 15 16 16 16 15 15 14 13
7 7 8 8 9 10 11 14 15 18 20 22 21 20 23 27 27 27 26 24 23 21 20 20 20 21 20 18 17 17 15 16 15 15 14 15 16 18 17 16 15 16 14
11 11 10 11 13 15 15 13 11 13 15 17 18 17 17 18 21 19 20 20 19 17 15 12 10 11 11 10 11 13 15 14 14 13 14 17 19 18 18 21 17 17 14
12 12 13 14 16 20 15 9 13 15 13 12 14 13 10 10 11 12 10 9 8 8 9 10 11 11 10 13 15 17 15 15 15 15 18 17 21 18 23 22 16 20 14
14 14 13 14 15 15 12 12 15 12 13 12 7 4 2 1 2 0 1 3 4 6 7 8 11 10 9 12 12 9 10 11 12 14 17 18 16 18 21 24 23 15 13
12 12 10 11 10 8 7 13 18 14 14 15 14 8 6 6 6 6 5 6 5 5 7 8 7 8 10 10 11 12 13 14 14 15 18 16 17 20 21 17 16 8 10
11 11 9 10 12 13 17 16 15 13 17 17 15 10 8 8 2 7 10 9 8 7 10 9 9 9 9 16 12 12 14 15 19 18 20 13 15 14 15 7 7 12 12
11 12 8 9 11 14 16 17 15 17 16 13 12 9 3 6 8 2 5 11 11 10 10 9 9 10 11 11 11 11 11 11 12 12 12 13 11 12 15 4 11 15 12
9 6 4 8 11 13 15 17 16 18 13 12 13 8 3 3 4 4 10 12 12 11 11 11 11 12 12 12 12 12 9 11 12 15 9 14 10 9 8 12 13 13 11
8 8 8 10 12 10 16 17 18 12 7 7 5 5 5 3 5 7 11 11 12 13 13 12 11 11 11 10 8 7 6 7 8 7 9 10 11 8 6 10 10 9 8
8 10 11 10 11 12 15 14 13 7 3 4 6 7 9 9 9 9 10 11 12 14 14 15 14 13 12 9 6 5 5 5 6 7 8 8 9 12 12 8 9 9 5
12 11 11 11 11 11 11 11 10 6 2 3 5 6 4 6 9 9 10 11 13 15 15 16 15 14 12 9 6 4 5 7 8 11 10 9 8 14 13 6 8 7 7
11 11 11 11 10 10 9 9 8 7 5 6 6 8 7 8 9 9 10 12 12 14 15 16 15 14 11 9 8 7 7 10 17 16 10 12 7 10 8 7 7 8 7
9 9 10 10 10 10 11 12 11 11 10 10 11 10 11 13 14 15 15 15 16 17 16 16 15 13 12 11 10 7 11 9 7 7 8 9 10 9 11 10 9 8 6
9 10 10 11 11 11 12 13 14 14 13 13 13 14 14 15 17 18 18 19 21 21 17 17 16 14 12 12 11 9 6 6 9 8 8 8 9 10 9 8 9 8 7
Wind_Direction
234 246 231 251 255 230 236 237 233 232 239 246 238 233 235 235 233 233 243 251 259 267 276 287 295 304 307 307 323 336 316 315 324 313 288 270 265 276 276 267 266 265 274
217 232 242 244 250 253 237 233 235 234 239 243 248 246 243 243 245 245 252 261 266 271 277 285 291 294 302 308 304 319 330 306 318 313 291 283 277 273 270 265 263 264 269
219 227 238 231 224 241 246 242 236 235 239 245 249 252 252 250 250 253 255 260 265 269 276 282 289 296 303 301 305 305 325 326 314 330 296 285 289 279 267 266 266 259 284
238 232 233 232 227 233 240 242 242 245 246 245 245 246 250 254 257 258 261 265 270 272 274 276 281 288 290 294 295 298 313 326 320 324 320 281 285 285 274 266 266 272 284
224 230 235 237 236 230 238 245 248 247 248 247 245 246 246 249 254 260 262 264 269 274 277 281 285 288 288 290 293 292 305 306 318 317 318 291 277 283 275 269 266 275 284
227 237 232 226 234 234 233 247 248 252 255 255 261 258 257 258 256 258 258 260 262 268 272 277 280 282 285 284 290 285 280 288 296 292 295 299 278 275 275 272 274 283 287
234 239 243 242 241 244 252 256 260 265 258 266 262 263 265 267 267 264 264 263 263 267 273 274 276 277 275 273 295 270 267 284 293 279 305 287 271 272 273 270 272 277 281
254 251 245 246 248 250 257 272 269 256 257 266 267 268 268 272 266 264 263 262 262 265 271 274 274 276 275 273 277 267 271 287 285 274 276 286 260 263 266 263 265 271 273
274 272 269 259 264 269 274 277 277 261 258 264 262 272 275 266 277 270 244 258 264 271 271 270 270 271 274 275 271 279 282 279 278 273 282 268 249 254 259 261 261 263 270
275 275 279 279 277 278 284 279 275 278 280 280 276 276 283 286 278 265 255 257 277 281 277 272 271 271 275 275 280 280 274 280 286 271 287 256 243 248 255 258 261 262 272
307 292 286 285 284 280 281 283 286 288 286 283 280 277 277 271 267 265 261 263 281 272 274 276 275 274 272 273 275 277 265 266 261 262 268 247 237 242 248 255 259 264 267
340 321 305 301 300 296 290 286 284 283 284 288 286 284 279 275 274 274 275 274 274 275 276 276 273 270 267 262 259 258 255 249 264 269 260 233 236 244 244 254 269 266 257
345 330 321 321 319 315 310 308 305 302 298 295 296 292 282 275 272 268 269 269 273 278 284 287 276 265 262 251 251 258 254 257 261 249 229 228 233 245 249 256 263 265 260
354 347 349 348 341 337 325 323 315 312 307 301 299 298 295 282 267 263 263 259 267 276 280 279 265 243 237 282 278 272 261 255 248 237 225 231 241 250 254 247 254 259 266
331 338 342 344 345 334 311 321 340 328 314 293 291 295 290 259 252 255 259 270 277 285 275 263 260 253 253 249 251 253 248 246 244 236 234 242 249 253 274 236 245 253 247
313 323 327 336 360 360 19 10 355 1 5 336 318 316 343 233 182 335 344 343 336 318 292 269 256 247 243 250 257 257 251 227 226 236 243 247 247 271 284 239 239 244 262
311 313 311 317 332 15 341 334 337 341 343 347 335 337 95 80 78 66 44 29 13 357 338 295 286 279 261 266 251 245 253 239 244 239 250 262 261 285 293 291 284 242 273
312 306 294 298 302 303 315 331 334 337 326 322 339 306 308 176 61 47 49 21 349 321 295 298 285 278 271 260 260 254 249 258 239 259 253 267 272 259 267 245 251 251 258
310 307 277 278 299 304 308 317 323 310 323 321 323 297 13 77 101 144 333 340 333 326 324 321 315 304 295 284 277 266 252 242 237 243 247 252 269 290 260 254 253 235 253
306 309 298 298 305 310 320 320 310 321 314 329 351 131 123 45 70 326 326 335 342 346 342 335 326 317 305 292 283 273 256 244 247 249 250 248 252 257 255 273 255 244 246
285 286 295 310 314 315 327 332 328 313 293 325 346 176 163 199 257 296 317 334 349 353 351 345 339 334 330 316 295 277 265 259 244 229 245 226 232 214 239 259 257 237 267
288 286 295 301 315 319 326 338 353 356 319 322 323 259 255 286 300 312 324 329 336 340 344 346 346 346 343 340 322 305 239 196 220 219 216 217 229 235 258 242 241 247 263
285 281 286 295 302 310 320 328 340 349 350 329 343 351 313 296 305 317 324 326 329 336 340 341 340 340 341 337 320 286 229 239 223 253 226 238 263 257 220 226 240 229 244
293 292 288 289 292 290 288 320 317 330 291 278 292 323 307 304 306 312 317 320 322 326 332 336 336 337 332 325 308 277 249 247 247 261 240 266 264 199 222 224 215 223 232
309 305 302 298 293 279 272 283 287 293 300 284 274 289 293 291 297 302 301 307 312 320 324 329 330 330 326 314 305 286 263 267 253 230 261 256 220 219 201 202 208 215 211
307 308 305 302 298 292 287 286 286 288 287 285 277 282 287 290 295 299 301 302 304 307 309 317 323 324 322 310 296 283 270 251 264 252 224 195 178 183 194 197 204 209 197
Height
3220 3222 3222 3222 3222 3222 3224 3226 3227 3227 3227 3228 3227 3228 3230 3231 3232 3232 3233 3234 3235 3235 3234 3234 3233 3232 3231 3230 3227 3223 3222 3220 3219 3216 3213 3210 3210 3210 3211 3211 3211 3211 3212
3217 3218 3220 3220 3220 3220 3221 3222 3223 3224 3224 3225 3226 3226 3227 3228 3228 3229 3230 3231 3231 3231 3230 3231 3230 3229 3228 3227 3224 3221 3219 3218 3216 3213 3210 3208 3207 3206 3206 3207 3208 3208 3207
3213 3214 3215 3216 3216 3217 3217 3218 3219 3219 3221 3222 3223 3224 3224 3224 3224 3225 3225 3225 3225 3225 3225 3225 3225 3225 3224 3222 3220 3219 3216 3215 3214 3211 3209 3206 3204 3204 3204 3203 3204 3204 3204
3210 3210 3211 3212 3213 3213 3213 3214 3215 3217 3217 3217 3218 3219 3219 3220 3221 3221 3220 3220 3220 3220 3220 3219 3219 3219 3219 3218 3216 3214 3213 3211 3210 3207 3206 3203 3201 3200 3199 3200 3200 3200 3200
3203 3205 3207 3208 3209 3209 3211 3212 3212 3213 3213 3213 3213 3213 3212 3212 3213 3215 3215 3215 3214 3214 3214 3214 3214 3214 3214 3213 3211 3210 3208 3207 3205 3202 3202 3200 3198 3196 3196 3196 3196 3197 3197
3199 3199 3201 3202 3204 3205 3205 3207 3209 3210 3208 3209 3209 3209 3209 3208 3208 3208 3208 3207 3208 3209 3207 3207 3206 3207 3207 3206 3206 3205 3203 3201 3200 3197 3195 3195 3194 3193 3192 3192 3192 3193 3193
3193 3194 3195 3196 3198 3199 3199 3200 3201 3201 3202 3202 3202 3203 3203 3203 3202 3202 3202 3201 3200 3202 3203 3201 3200 3200 3198 3198 3196 3196 3196 3193 3192 3192 3189 3190 3189 3189 3189 3188 3188 3189 3190
3188 3188 3189 3190 3191 3192 3192 3192 3191 3191 3192 3194 3192 3195 3196 3195 3194 3192 3193 3193 3193 3193 3194 3195 3193 3191 3190 3188 3188 3188 3187 3185 3183 3182 3181 3182 3182 3184 3185 3185 3185 3185 3185
3184 3184 3184 3185 3185 3184 3185 3184 3184 3183 3183 3184 3184 3186 3186 3185 3181 3173 3179 3184 3185 3184 3183 3183 3183 3181 3181 3179 3177 3177 3177 3177 3176 3173 3172 3175 3177 3180 3182 3181 3181 3181 3181
3179 3179 3179 3178 3178 3178 3177 3177 3177 3177 3175 3176 3176 3176 3173 3171 3172 3171 3175 3177 3176 3174 3175 3174 3173 3172 3171 3170 3170 3170 3170 3170 3168 3168 3168 3169 3172 3175 3176 3176 3176 3176 3176
3175 3175 3175 3174 3174 3174 3172 3171 3170 3170 3169 3169 3169 3167 3166 3166 3167 3168 3167 3168 3167 3165 3165 3164 3162 3161 3161 3162 3162 3163 3163 3163 3163 3163 3164 3165 3168 3170 3171 3171 3171 3171 3172
3173 3173 3172 3171 3170 3170 3169 3167 3165 3164 3162 3162 3162 3161 3160 3159 3159 3159 3159 3158 3158 3158 3155 3153 3151 3151 3152 3152 3153 3153 3155 3156 3157 3158 3159 3161 3164 3166 3166 3167 3167 3167 3168
3174 3173 3171 3170 3168 3166 3164 3162 3160 3158 3157 3155 3155 3154 3154 3152 3151 3151 3151 3151 3151 3149 3147 3144 3143 3145 3145 3146 3147 3148 3149 3150 3151 3153 3155 3157 3159 3160 3161 3162 3162 3164 3164
3173 3172 3170 3168 3166 3163 3161 3158 3156 3154 3152 3150 3149 3148 3147 3146 3146 3147 3147 3146 3146 3144 3142 3142 3140 3141 3141 3142 3142 3143 3145 3145 3147 3148 3151 3152 3154 3155 3156 3157 3157 3158 3158
3172 3171 3169 3165 3163 3159 3155 3154 3153 3150 3148 3147 3146 3144 3143 3142 3142 3142 3143 3143 3142 3141 3140 3140 3139 3139 3138 3139 3139 3140 3140 3141 3142 3144 3147 3149 3150 3151 3151 3148 3152 3153 3153
3168 3167 3166 3164 3162 3158 3156 3155 3152 3149 3147 3145 3144 3142 3141 3141 3140 3140 3140 3140 3140 3139 3138 3138 3137 3136 3136 3137 3136 3136 3136 3137 3139 3141 3143 3144 3146 3147 3146 3144 3146 3148 3149
3166 3165 3164 3163 3161 3159 3157 3154 3152 3149 3147 3145 3143 3139 3140 3140 3140 3139 3139 3140 3138 3137 3137 3135 3134 3133 3134 3135 3134 3134 3134 3135 3136 3138 3139 3139 3142 3143 3143 3143 3143 3145 3146
3163 3162 3162 3161 3159 3158 3155 3153 3151 3149 3147 3144 3141 3140 3139 3138 3139 3138 3138 3139 3139 3139 3137 3135 3133 3131 3131 3131 3130 3130 3131 3131 3133 3134 3135 3137 3139 3139 3138 3139 3141 3142 3143
3160 3159 3158 3158 3157 3155 3153 3151 3148 3146 3144 3142 3139 3137 3138 3137 3139 3141 3141 3140 3139 3136 3134 3132 3130 3129 3128 3127 3126 3126 3127 3127 3128 3130 3132 3132 3134 3134 3134 3136 3138 3138 3139
3159 3158 3157 3157 3155 3153 3150 3148 3146 3144 3142 3140 3138 3137 3139 3139 3140 3139 3139 3139 3137 3134 3131 3130 3128 3127 3125 3124 3123 3122 3123 3124 3125 3126 3127 3129 3130 3131 3133 3134 3135 3135 3136
3158 3157 3156 3155 3153 3151 3149 3146 3143 3140 3140 3140 3139 3139 3139 3140 3140 3139 3138 3137 3135 3133 3131 3129 3127 3125 3122 3120 3119 3119 3119 3121 3122 3123 3125 3127 3128 3129 3130 3131 3132 3132 3133
3156 3155 3154 3153 3152 3150 3148 3146 3142 3140 3139 3139 3139 3138 3139 3139 3138 3137 3136 3136 3134 3133 3130 3127 3125 3122 3120 3118 3117 3117 3118 3120 3121 3122 3123 3124 3125 3126 3127 3128 3129 3130 3131
3153 3153 3152 3151 3150 3149 3147 3145 3143 3141 3140 3139 3139 3138 3138 3137 3137 3136 3135 3134 3132 3130 3128 3126 3124 3121 3119 3118 3117 3116 3117 3118 3118 3119 3120 3121 3122 3122 3123 3125 3126 3127 3129
3149 3149 3149 3148 3147 3146 3145 3144 3143 3142 3140 3140 3139 3137 3136 3136 3135 3134 3133 3131 3130 3128 3127 3124 3122 3120 3118 3117 3116 3115 3115 3116 3116 3116 3118 3118 3118 3119 3122 3123 3124 3126 3127
3146 3146 3145 3145 3144 3143 3143 3142 3141 3140 3140 3139 3138 3137 3135 3134 3132 3132 3131 3129 3127 3126 3124 3122 3119 3117 3116 3114 3113 3112 3113 3113 3113 3114 3114 3115 3116 3118 3119 3121 3123 3124 3125
3144 3143 3142 3142 3141 3141 3140 3139 3138 3137 3137 3136 3135 3134 3133 3131 3130 3128 3127 3126 3124 3123 3121 3119 3117 3115 3113 3111 3110 3109 3109 3110 3110 3111 3112 3113 3115 3117 3118 3120 3121 3123 3123